Weather History for Szeged, Hungary

Change the Weather History Date:

Wednesday, November 13, 2013

  Actual Average (LRAR) Record (LRAR)
Temperature  
Mean Temperature 50 °F -  
Max Temperature 53 °F 45 °F 66 °F (1997)
Min Temperature 46 °F 32 °F 23 °F (2011)
Degree Days  
Heating Degree Days 16    
Moisture  
Dew Point 46 °F    
Average Humidity 85    
Maximum Humidity 94    
Minimum Humidity 73    
Precipitation  
Precipitation 0.00 in 0.05 in - ()
Sea Level Pressure  
Sea Level Pressure 30.25 in    
Wind  
Wind Speed 5 mph ()    
Max Wind Speed 13 mph    
Max Gust Speed -    
Visibility 4.8 miles    
Events Rain    
Averages and records for this station are not official NWS values.
T = Trace of Precipitation, MM = Missing Value Source: Averaged Metar Reports

Daily Weather History Graph

Daily Weather History Graph

Search for Another Location

Airport:

Trip Planner

Search our weather history database for the weather conditions in past years. The results will help you decide how hot, cold, wet, or windy it might be!

Date:

Astronomy

Nov. 13, 2013 Rise Set
Actual Time 6:37 AM CET 4:09 PM CET
Civil Twilight 6:05 AM CET 4:41 PM CET
Nautical Twilight 5:29 AM CET 5:18 PM CET
Astronomical Twilight 4:53 AM CET 5:53 PM CET
Moon 1:59 PM CET (11/13) 1:57 AM CET (11/13)
Length of Visible Light 10h 36m
Length of Day
9h 31m
Waxing Gibbous, 82% of the Moon is Illuminated
Nov 13
Waxing Gibbous
Nov 17
Full
Nov 25
Last Quarter
Dec 3
New
Dec 9
First Quarter

Hourly Weather History & Observations

Time (CET) Temp. Windchill Dew Point Humidity Pressure Visibility Wind Dir Wind Speed Gust Speed Precip Events Conditions
12:45 AM 50.0 °F - 46.4 °F 87% 30.27 in - Calm Calm - N/A   Clear
1:00 AM 49 °F - 46 °F 87% 30.28 in 9 mi Calm Calm - -   Partly Cloudy
1:45 AM 50.0 °F - 46.4 °F 87% 30.27 in - North 1.2 mph - N/A   Clear
2:45 AM 50.0 °F - 46.4 °F 87% 30.27 in - North 3.5 mph - N/A   Clear
3:45 AM 50.0 °F - 46.4 °F 87% 30.24 in - North 2.3 mph - N/A   Clear
4:45 AM 50.0 °F - 46.4 °F 87% 30.24 in - NNE 3.5 mph - N/A   Clear
5:15 AM 50.0 °F - 46.4 °F 87% 30.24 in - North 3.5 mph - N/A   Clear
5:45 AM 50.0 °F - 46.4 °F 87% 30.24 in - NE 2.3 mph - N/A   Clear
6:15 AM 48.2 °F - 46.4 °F 93% 30.24 in - NNE 2.3 mph - N/A   Clear
6:45 AM 48.2 °F - 46.4 °F 93% 30.24 in 3.7 mi North 2.3 mph - N/A   Mostly Cloudy
7:00 AM 49 °F - 47 °F 89% 30.25 in 4 mi North 2.2 mph - -   Partly Cloudy
7:15 AM 48.2 °F - 46.4 °F 93% 30.24 in 3.7 mi NNW 2.3 mph - N/A   Mostly Cloudy
7:45 AM 50.0 °F - 46.4 °F 87% 30.24 in 3.7 mi North 4.6 mph - N/A   Overcast
8:15 AM 50.0 °F - 46.4 °F 87% 30.27 in 4.3 mi NNW 4.6 mph - N/A   Overcast
8:45 AM 50.0 °F - 46.4 °F 87% 30.27 in 5.0 mi North 3.5 mph - N/A   Overcast
9:15 AM 50.0 °F - 46.4 °F 87% 30.27 in 5.6 mi NNE 3.5 mph - N/A   Overcast
9:45 AM 50.0 °F - 46.4 °F 87% 30.27 in 5.6 mi North 5.8 mph - N/A   Overcast
10:15 AM 51.8 °F - 46.4 °F 82% 30.27 in 6.2 mi North 6.9 mph - N/A   Overcast
10:45 AM 51.8 °F - 48.2 °F 88% 30.27 in 6.2 mi North 6.9 mph - N/A   Overcast
11:15 AM 51.8 °F - 48.2 °F 88% 30.24 in 6.2 mi North 5.8 mph - N/A   Mostly Cloudy
11:45 AM 51.8 °F - 46.4 °F 82% 30.24 in 6.2 mi North 9.2 mph - N/A   Mostly Cloudy
12:15 PM 53.6 °F - 48.2 °F 82% 30.24 in - North 6.9 mph - N/A   Clear
12:45 PM 53.6 °F - 46.4 °F 77% 30.24 in - North 8.1 mph - N/A   Clear
1:00 PM 53 °F - 47 °F 73% 30.25 in 7 mi North 8.9 mph - -   Partly Cloudy
1:15 PM 53.6 °F - 48.2 °F 82% 30.24 in - NNW 6.9 mph - N/A   Clear
1:45 PM 51.8 °F - 46.4 °F 82% 30.24 in - North 8.1 mph - N/A   Clear
2:15 PM 53.6 °F - 48.2 °F 82% 30.24 in - North 5.8 mph - N/A   Clear
2:45 PM 53.6 °F - 46.4 °F 77% 30.24 in - North 8.1 mph - N/A   Clear
3:15 PM 51.8 °F - 44.6 °F 76% 30.24 in - North 8.1 mph - N/A   Clear
3:45 PM 51.8 °F - 44.6 °F 76% 30.24 in - NNW 9.2 mph - N/A   Clear
4:15 PM 51.8 °F - 44.6 °F 76% 30.24 in - NNW 9.2 mph - N/A   Clear
4:45 PM 50.0 °F - 44.6 °F 82% 30.24 in - North 8.1 mph - N/A   Clear
5:15 PM 51.8 °F - 48.2 °F 88% 30.24 in 4.3 mi NNW 10.4 mph - N/A   Overcast
5:45 PM 51.8 °F - 48.2 °F 88% 30.24 in 3.7 mi NNW 9.2 mph - N/A   Overcast
6:15 PM 50.0 °F - 48.2 °F 94% 30.24 in 3.7 mi NNW 11.5 mph - N/A Rain Light Rain
6:17 PM 50.0 °F - 48.2 °F 94% 30.27 in 3.7 mi NNW 10.4 mph - N/A Rain Light Rain
6:45 PM 50.0 °F - 46.4 °F 87% 30.24 in 1.9 mi NW 12.7 mph - N/A Rain Light Rain
7:00 PM 50 °F - 47 °F 86% 30.25 in 2 mi NW 13.4 mph - - Rain Light Rain
7:15 PM 50.0 °F - 46.4 °F 87% 30.24 in 2.8 mi NNW 10.4 mph - N/A   Overcast
7:45 PM 48.2 °F - 46.4 °F 93% 30.24 in 4.3 mi NNW 10.4 mph - N/A   Overcast
8:15 PM 48.2 °F - 44.6 °F 87% 30.24 in 6.2 mi NNW 10.4 mph - N/A   Overcast
8:45 PM 48.2 °F - 44.6 °F 87% 30.24 in 6.2 mi NNW 10.4 mph - N/A   Overcast
9:45 PM 46.4 °F 41.1 °F 41.0 °F 81% 30.27 in 6.2 mi NNW 11.5 mph - N/A   Mostly Cloudy
10:45 PM 46.4 °F 41.5 °F 41.0 °F 81% 30.27 in 5.0 mi NNW 10.4 mph - N/A   Overcast
11:45 PM 46.4 °F 41.1 °F 41.0 °F 81% 30.27 in 3.1 mi North 11.5 mph - N/A   Light Drizzle